Regional Weather Roundup
Issued by NWS Cleveland, OH

Home | Current Version | Previous Version | Graphics & Text | Print | Product List | Glossary On
Versions: 1 2 3 4 5 6 7 8 9 10 11 12 13 14 15 16 17 18 19 20 21 22 23 24 25 26 27 28 29 30 31 32 33 34 35 36 37 38 39 40 41 42 43 44 45 46 47 48 49 50
000
ASUS41 KCLE 042202
RWRCLE
OHIO REGIONAL WEATHER ROUNDUP
NATIONAL WEATHER SERVICE CLEVELAND, OH
600 PM EDT MON MAY 04 2015

NOTE: "FAIR" INDICATES FEW OR NO CLOUDS BELOW 12,000 FEET WITH NO
SIGNIFICANT WEATHER AND/OR OBSTRUCTIONS TO VISIBILITY.

OHZ001>008-015>018-024>027-034-035-043-044-042300-
   NORTHWEST OHIO

CITY           SKY/WX    TMP DP  RH WIND       PRES   REMARKS
DEFIANCE       PTSUNNY   70  61  73 SW10      30.14S
FINDLAY        CLOUDY    67  62  84 W6        30.16R
TOLEDO EXPRESS PTSUNNY   71  60  68 SW14      30.12S
TOLEDO EXEC    PTSUNNY   71  60  68 SW17G23   30.14S
LIMA           CLOUDY    66  61  84 SW5       30.17S
$$

OHZ009>014-019>023-028>033-038-089-042300-
   NORTHEAST OHIO

CITY           SKY/WX    TMP DP  RH WIND       PRES   REMARKS
CLE-HOPKINS    LGT RAIN  66  59  78 SW8       30.17R
CLE-LAKEFRONT  LGT RAIN  68  59  73 SW14      30.13S
CUY CO. ARPT   CLOUDY    68  61  77 SW12      30.16S
LORAIN-ELYRIA  LGT RAIN  67  59  75 W10       30.16R
ASHTABULA      LGT RAIN  64  57  78 W13G21    30.16R
AKRON-CANTON   LGT RAIN  67  58  72 NW14G28   30.18R
WOOSTER        RAIN      64  60  87 NW15      30.18R FOG
MANSFIELD      LGT RAIN  63  61  93 W5        30.20R FOG
YOUNGSTOWN     LGT RAIN  70  57  63 NW16      30.14R
$$

OHZ042-051>053-060>062-070>072-077>081-042300-
  SOUTHWEST OHIO

CITY           SKY/WX    TMP DP  RH WIND       PRES   REMARKS
CINC-COVINGTON CLOUDY    80  57  45 VRB6      30.16S
CINC-LUNKEN    CLOUDY    76  63  64 W3        30.15F
HAMILTON       CLOUDY    78  58  49 W3        30.17R
DAYTON         CLOUDY    75  57  53 SW12      30.17S
WRIGHT-PAT AFB CLOUDY    74  58  55 SW10      30.16R
DAYTON GENERAL CLOUDY    76  55  48 SW10      30.16S
WILMINGTON     CLOUDY    75  54  47 W7        30.17S
$$

OHZ036-037-039>041-045>050-054>059-063>069-073>076-082>088-042300-
  CENTRAL AND SOUTHEAST OHIO

CITY           SKY/WX    TMP DP  RH WIND       PRES   REMARKS
COLUMBUS       CLOUDY    71  60  68 W6        30.16S
OSU AIRPORT    LGT RAIN  70  60  70 CALM      30.17R
BOLTON FIELD   CLOUDY    73  61  64 W6        30.17S
RICKENBACK AFB NOT AVBL
NEWARK         LGT RAIN  69  60  73 NW6       30.16R
MARION         CLOUDY    67  60  78 N3        30.18R
LANCASTER      CLOUDY    70  62  76 N3        30.17R
ZANESVILLE     PTSUNNY   78  50  37 W8        30.15R
NEW PHILLY     CLOUDY    81  49  32 W9        30.15R
$$



USA.gov is the U.S. government's official web portal to all federal, state and local government web resources and services.